Location: Red Rock Canyon
(36.1333°N, 115.4333°W)
Time: 20:19:52
(UTC-07:00)

ISS - Visible Passes

Search period start: 24 May 2015 00:00
Search period end: 03 June 2015 00:00
Orbit: 399 x 404 km, 51.6° (Epoch: 24 May)

Date Brightness Start Highest point End Pass type
(mag) Time Alt. Az. Time Alt. Az. Time Alt. Az.
24 May 0.0 02:01:46 12° N 02:01:46 12° N 02:02:22 10° N visible
28 May -0.3 04:54:16 10° NNW 04:56:44 19° NNE 04:59:13 10° E visible
29 May 0.0 04:01:41 10° N 04:03:12 13° NNE 04:04:47 10° NE visible
29 May 0.3 23:54:51 11° N 23:54:51 11° N 23:55:14 10° N visible
30 May -1.7 04:43:40 10° NW 04:46:46 39° NE 04:49:51 10° ESE visible
30 May -3.3 21:20:43 10° SSW 21:23:51 51° SE 21:27:01 10° ENE visible
30 May -0.4 22:58:10 10° WNW 23:00:28 18° NNW 23:02:45 10° NNE visible
31 May -0.6 03:50:43 10° NNW 03:53:20 22° NNE 03:55:57 10° E visible
31 May -2.2 20:28:03 10° S 20:30:40 23° SE 20:33:19 10° ENE visible
31 May -1.3 22:04:06 10° W 22:06:59 29° NW 22:09:53 10° NNE visible
01 Jun 0.1 02:57:59 10° N 02:59:47 14° NNE 03:01:37 10° ENE visible
01 Jun -3.4 04:33:19 10° NW 04:36:35 81° SW 04:39:50 10° SE visible
01 Jun -2.7 21:10:24 10° WSW 21:13:35 57° NW 21:16:47 10° NE visible
01 Jun 0.4 22:49:48 10° NW 22:50:36 11° NNW 22:51:20 10° N visible
02 Jun -2.2 03:40:06 10° NW 03:43:15 46° NE 03:46:23 10° ESE visible
02 Jun -3.4 20:17:04 10° SW 20:20:15 62° SE 20:23:29 10° NE visible
02 Jun -0.1 21:54:52 10° WNW 21:56:58 16° NNW 21:59:02 10° NNE visible
